TimeMST,TemperatureF,Dew PointF,Humidity,Sea Level PressureIn,VisibilityMPH,Wind Direction,Wind SpeedMPH,Gust SpeedMPH,PrecipitationIn,Events,Conditions,WindDirDegrees,DateUTC
12:15 AM,49.1,24.6,38,30.26,10.0,SE,3.5,-,N/A,,Clear,140,2013-10-07 07:15:00
12:35 AM,46.2,25.0,43,30.26,10.0,ESE,4.6,-,N/A,,Clear,110,2013-10-07 07:35:00
12:55 AM,43.5,25.3,49,30.26,10.0,SE,3.5,-,N/A,,Clear,130,2013-10-07 07:55:00
1:15 AM,42.4,25.3,51,30.26,10.0,South,4.6,-,N/A,,Clear,190,2013-10-07 08:15:00
1:35 AM,41.4,25.0,52,30.26,10.0,South,6.9,-,N/A,,Clear,170,2013-10-07 08:35:00
1:55 AM,39.6,24.8,56,30.26,10.0,SE,6.9,-,N/A,,Clear,130,2013-10-07 08:55:00
2:15 AM,40.6,25.5,55,30.26,10.0,SE,6.9,-,N/A,,Clear,140,2013-10-07 09:15:00
2:35 AM,41.2,25.5,54,30.25,10.0,SE,5.8,-,N/A,,Clear,140,2013-10-07 09:35:00
2:55 AM,39.9,25.5,56,30.25,10.0,SE,5.8,-,N/A,,Clear,130,2013-10-07 09:55:00
3:15 AM,39.0,25.5,58,30.25,10.0,SE,6.9,-,N/A,,Clear,140,2013-10-07 10:15:00
3:35 AM,38.7,25.7,60,30.23,10.0,SSE,8.1,-,N/A,,Clear,150,2013-10-07 10:35:00
3:55 AM,39.4,26.1,59,30.23,10.0,SE,4.6,-,N/A,,Clear,140,2013-10-07 10:55:00
4:15 AM,39.9,25.9,57,30.23,10.0,South,5.8,-,N/A,,Clear,190,2013-10-07 11:15:00
4:35 AM,40.3,26.1,57,30.23,10.0,SSE,6.9,-,N/A,,Clear,160,2013-10-07 11:35:00
4:55 AM,40.1,26.4,58,30.24,10.0,SE,8.1,-,N/A,,Clear,140,2013-10-07 11:55:00
5:15 AM,40.6,26.6,57,30.24,10.0,ESE,5.8,-,N/A,,Clear,120,2013-10-07 12:15:00
5:35 AM,39.0,26.4,61,30.25,10.0,SE,4.6,-,N/A,,Clear,130,2013-10-07 12:35:00
5:55 AM,38.3,26.2,62,30.24,10.0,SE,5.8,-,N/A,,Clear,140,2013-10-07 12:55:00
6:15 AM,37.4,26.2,64,30.24,10.0,SSE,4.6,-,N/A,,Clear,150,2013-10-07 13:15:00
6:35 AM,37.2,26.1,64,30.24,10.0,South,5.8,-,N/A,,Clear,170,2013-10-07 13:35:00
6:55 AM,37.9,26.6,64,30.24,10.0,SE,6.9,-,N/A,,Clear,140,2013-10-07 13:55:00
7:15 AM,43.2,27.7,54,30.24,10.0,SSE,6.9,-,N/A,,Clear,150,2013-10-07 14:15:00
7:35 AM,50.2,27.9,42,30.25,10.0,SE,6.9,-,N/A,,Clear,140,2013-10-07 14:35:00
7:55 AM,53.4,27.3,37,30.25,10.0,SE,6.9,-,N/A,,Clear,130,2013-10-07 14:55:00
8:15 AM,55.0,27.3,34,30.25,10.0,SSE,6.9,-,N/A,,Clear,150,2013-10-07 15:15:00
8:35 AM,57.0,27.7,33,30.24,10.0,SE,6.9,-,N/A,,Clear,140,2013-10-07 15:35:00
8:55 AM,61.5,28.6,29,30.24,10.0,SSE,8.1,-,N/A,,Clear,160,2013-10-07 15:55:00
9:15 AM,63.7,28.2,26,30.24,10.0,SSE,6.9,-,N/A,,Clear,150,2013-10-07 16:15:00
9:35 AM,64.6,28.2,25,30.24,10.0,SE,3.5,-,N/A,,Clear,140,2013-10-07 16:35:00
9:55 AM,68.5,28.6,22,30.24,10.0,SE,6.9,-,N/A,,Clear,140,2013-10-07 16:55:00
10:15 AM,69.1,28.4,22,30.24,10.0,SE,8.1,-,N/A,,Clear,130,2013-10-07 17:15:00
10:35 AM,71.4,28.6,20,30.23,10.0,SE,8.1,-,N/A,,Clear,140,2013-10-07 17:35:00
10:55 AM,73.4,27.3,18,30.22,10.0,SE,4.6,-,N/A,,Clear,130,2013-10-07 17:55:00
11:15 AM,74.8,23.5,15,30.20,10.0,SSE,9.2,17.3,N/A,,Clear,150,2013-10-07 18:15:00
11:35 AM,75.9,22.3,14,30.20,10.0,SE,10.4,17.3,N/A,,Clear,130,2013-10-07 18:35:00
11:55 AM,76.8,21.7,13,30.20,10.0,SE,13.8,18.4,N/A,,Clear,140,2013-10-07 18:55:00
12:15 PM,77.7,21.9,13,30.19,10.0,SSE,11.5,17.3,N/A,,Clear,150,2013-10-07 19:15:00
12:35 PM,76.6,21.6,13,30.18,10.0,SE,9.2,19.6,N/A,,Clear,140,2013-10-07 19:35:00
12:55 PM,76.6,21.4,13,30.17,10.0,ESE,9.2,-,N/A,,Clear,120,2013-10-07 19:55:00
1:15 PM,76.1,20.8,13,30.16,10.0,SE,6.9,-,N/A,,Clear,130,2013-10-07 20:15:00
1:35 PM,75.7,20.3,13,30.15,10.0,ESE,8.1,-,N/A,,Clear,110,2013-10-07 20:35:00
1:55 PM,75.7,20.7,13,30.13,10.0,ESE,4.6,-,N/A,,Clear,110,2013-10-07 20:55:00
2:15 PM,75.7,20.5,13,30.13,10.0,Calm,Calm,-,N/A,,Clear,0,2013-10-07 21:15:00
2:35 PM,76.6,21.0,13,30.12,10.0,SE,6.9,-,N/A,,Clear,130,2013-10-07 21:35:00
2:55 PM,78.3,21.2,12,30.11,10.0,ESE,8.1,-,N/A,,Clear,110,2013-10-07 21:55:00
3:15 PM,77.2,21.0,12,30.10,10.0,ESE,5.8,-,N/A,,Clear,120,2013-10-07 22:15:00
3:35 PM,77.2,19.8,12,30.09,10.0,ESE,4.6,-,N/A,,Clear,120,2013-10-07 22:35:00
3:55 PM,77.4,19.2,11,30.09,10.0,ESE,6.9,-,N/A,,Clear,120,2013-10-07 22:55:00
4:15 PM,77.5,19.0,11,30.08,10.0,SE,6.9,-,N/A,,Clear,130,2013-10-07 23:15:00
4:35 PM,75.9,19.2,12,30.08,10.0,East,3.5,-,N/A,,Clear,90,2013-10-07 23:35:00
4:55 PM,75.6,19.6,12,30.07,10.0,ESE,4.6,-,N/A,,Clear,110,2013-10-07 23:55:00
5:15 PM,74.1,19.6,13,30.07,10.0,South,3.5,-,N/A,,Clear,170,2013-10-08 00:15:00
5:35 PM,72.3,20.5,14,30.07,10.0,Calm,Calm,-,N/A,,Clear,0,2013-10-08 00:35:00
5:55 PM,70.5,21.9,16,30.06,10.0,Calm,Calm,-,N/A,,Clear,0,2013-10-08 00:55:00
6:15 PM,66.4,23.7,20,30.06,10.0,Calm,Calm,-,N/A,,Clear,0,2013-10-08 01:15:00
6:35 PM,61.3,27.0,27,30.06,10.0,SE,3.5,-,N/A,,Clear,130,2013-10-08 01:35:00
6:55 PM,59.7,27.9,30,30.07,10.0,Calm,Calm,-,N/A,,Clear,0,2013-10-08 01:55:00
7:15 PM,57.7,28.0,32,30.07,10.0,North,8.1,-,N/A,,Clear,350,2013-10-08 02:15:00
7:35 PM,58.6,28.8,32,30.08,10.0,North,4.6,-,N/A,,Clear,360,2013-10-08 02:35:00
7:55 PM,56.3,27.3,33,30.08,10.0,North,3.5,-,N/A,,Clear,350,2013-10-08 02:55:00
8:15 PM,52.9,27.1,37,30.09,10.0,Calm,Calm,-,N/A,,Clear,0,2013-10-08 03:15:00
8:35 PM,51.6,27.9,40,30.09,10.0,Calm,Calm,-,N/A,,Clear,0,2013-10-08 03:35:00
8:55 PM,50.0,27.5,42,30.09,10.0,Calm,Calm,-,N/A,,Clear,0,2013-10-08 03:55:00
9:15 PM,48.2,28.0,46,30.09,10.0,Calm,Calm,-,N/A,,Clear,0,2013-10-08 04:15:00
9:35 PM,44.6,27.7,52,30.08,10.0,Calm,Calm,-,N/A,,Clear,0,2013-10-08 04:35:00
9:55 PM,42.8,27.5,55,30.08,10.0,SSE,3.5,-,N/A,,Clear,150,2013-10-08 04:55:00
10:15 PM,43.5,27.9,54,30.08,10.0,SSE,3.5,-,N/A,,Clear,150,2013-10-08 05:15:00
10:35 PM,43.7,27.3,53,30.07,10.0,SSE,3.5,-,N/A,,Clear,150,2013-10-08 05:35:00
10:55 PM,43.9,26.8,51,30.07,10.0,SE,4.6,-,N/A,,Clear,130,2013-10-08 05:55:00
11:15 PM,43.9,25.9,49,30.07,10.0,South,3.5,-,N/A,,Clear,180,2013-10-08 06:15:00
11:35 PM,44.2,25.3,47,30.06,10.0,SE,4.6,-,N/A,,Clear,130,2013-10-08 06:35:00
11:55 PM,41.0,25.2,53,30.06,10.0,ESE,4.6,-,N/A,,Clear,120,2013-10-08 06:55:00